| time (UTC) | temp C | wind direction | speed KPH | gust KPH | rain 1hr cm | rain 24hr cm | rain mn cm | humidity % | barometer mb |
| 20260504194521 | 17 | 175 | 0.0 | 12.9 | 0.00 | 0.00 | 0.00 | 54 | 1008.6 |
| 20260504193019 | 18 | 215 | 0.0 | 12.9 | 0.00 | 0.00 | 0.00 | 52 | 1008.8 |
| 20260504191524 | 18 | 184 | 1.6 | 14.5 | 0.00 | 0.00 | 0.00 | 51 | 1008.8 |
| 20260504190018 | 18 | 165 | 1.6 | 16.1 | 0.00 | 0.00 | 0.00 | 50 | 1008.9 |
| 20260504184514 | 18 | 182 | 0.0 | 24.1 | 0.00 | 0.00 | 0.00 | 50 | 1009.1 |
| 20260504183010 | 18 | 152 | 1.6 | 14.5 | 0.00 | 0.00 | 0.00 | 49 | 1009.1 |
| 20260504181507 | 18 | 171 | 0.0 | 9.7 | 0.00 | 0.00 | 0.00 | 50 | 1009.3 |
| 20260504180007 | 18 | 165 | 0.0 | 3.2 | 0.00 | 0.00 | 0.00 | 50 | 1009.4 |
| 20260504174505 | 19 | 161 | 0.0 | 4.8 | 0.00 | 0.00 | 0.00 | 50 | 1009.6 |
| 20260504173004 | 19 | 148 | 1.6 | 14.5 | 0.00 | 0.00 | 0.00 | 47 | 1009.4 |
| 20260504171523 | 18 | 181 | 1.6 | 24.1 | 0.00 | 0.00 | 0.00 | 46 | 1009.8 |
| 20260504081510 | 8 | 269 | 0.0 | 0.0 | 0.00 | 0.00 | 0.00 | 63 | 1011.3 |
| 20260504060111 | 7 | 269 | 0.0 | 0.0 | 0.00 | 0.00 | 0.00 | 69 | 1010.8 |
| 20260504044544 | 6 | 269 | 0.0 | 0.0 | 0.00 | 0.00 | 0.00 | 68 | 1010.6 |
| 20260504043039 | 6 | 269 | 0.0 | 0.0 | 0.00 | 0.00 | 0.00 | 66 | 1010.5 |
| 20260504041536 | 6 | 269 | 0.0 | 0.0 | 0.00 | 0.00 | 0.00 | 65 | 1010.4 |
| 20260504040035 | 6 | 269 | 0.0 | 0.0 | 0.00 | 0.00 | 0.00 | 63 | 1010.5 |
| 20260504034535 | 6 | 269 | 0.0 | 0.0 | 0.00 | 0.00 | 0.00 | 62 | 1010.5 |
| 20260504033038 | 6 | 269 | 0.0 | 0.0 | 0.00 | 0.00 | 0.00 | 62 | 1010.3 |
| 20260504031533 | 6 | 269 | 0.0 | 0.0 | 0.00 | 0.00 | 0.00 | 59 | 1010.2 |
| 20260504030032 | 7 | 269 | 0.0 | 0.0 | 0.00 | 0.00 | 0.00 | 59 | 1010.2 |
| 20260504024532 | 7 | 269 | 0.0 | 0.0 | 0.00 | 0.00 | 0.00 | 58 | 1010.2 |
| 20260504023031 | 7 | 269 | 0.0 | 0.0 | 0.00 | 0.00 | 0.00 | 56 | 1010.3 |
| 20260504021530 | 7 | 269 | 0.0 | 0.0 | 0.00 | 0.00 | 0.00 | 55 | 1010.2 |
| 20260504020030 | 8 | 269 | 0.0 | 0.0 | 0.00 | 0.00 | 0.00 | 54 | 1010.2 |
| 20260504014541 | 8 | 269 | 0.0 | 0.0 | 0.00 | 0.00 | 0.00 | 53 | 1010.2 |
| 20260504013027 | 9 | 269 | 0.0 | 0.0 | 0.00 | 0.00 | 0.00 | 51 | 1010.1 |
| 20260504011527 | 10 | 269 | 0.0 | 0.0 | 0.00 | 0.00 | 0.00 | 50 | 1009.9 |
| 20260504010025 | 10 | 269 | 0.0 | 0.0 | 0.00 | 0.00 | 0.00 | 48 | 1009.7 |
| 20260504004524 | 11 | 269 | 0.0 | 0.0 | 0.00 | 0.00 | 0.00 | 46 | 1009.5 |
| 20260504003021 | 11 | 269 | 0.0 | 0.0 | 0.00 | 0.00 | 0.00 | 43 | 1009.1 |
| 20260504001522 | 12 | 269 | 0.0 | 0.0 | 0.00 | 0.00 | 0.00 | 42 | 1009.0 |
| 20260504000037 | 12 | 269 | 0.0 | 0.0 | 0.00 | 0.00 | 0.00 | 39 | 1008.7 |
| 20260503234519 | 13 | 269 | 0.0 | 0.0 | 0.00 | 0.00 | 0.00 | 38 | 1008.5 |
| 20260503233021 | 13 | 269 | 0.0 | 0.0 | 0.00 | 0.00 | 0.00 | 36 | 1008.4 |
| 20260503231518 | 13 | 269 | 0.0 | 0.0 | 0.00 | 0.00 | 0.00 | 35 | 1008.3 |
| 20260503230022 | 13 | 265 | 0.0 | 0.0 | 0.00 | 0.00 | 0.00 | 35 | 1008.2 |
| 20260503224517 | 13 | 265 | 0.0 | 0.0 | 0.00 | 0.00 | 0.00 | 36 | 1008.1 |
| 20260503223016 | 13 | 18 | 0.0 | 1.6 | 0.00 | 0.00 | 0.00 | 35 | 1008.1 |
| 20260503221516 | 13 | 346 | 0.0 | 1.6 | 0.00 | 0.00 | 0.00 | 36 | 1008.0 |
| 20260503220020 | 13 | 281 | 0.0 | 12.9 | 0.00 | 0.00 | 0.00 | 34 | 1008.0 |
| 20260503214524 | 13 | 302 | 0.0 | 1.6 | 0.00 | 0.00 | 0.00 | 33 | 1008.0 |
| 20260503213015 | 13 | 217 | 0.0 | 8.0 | 0.00 | 0.00 | 0.00 | 34 | 1007.8 |
| 20260503211514 | 14 | 215 | 0.0 | 6.4 | 0.00 | 0.00 | 0.00 | 35 | 1007.7 |
| 20260503210035 | 14 | 14 | 0.0 | 1.6 | 0.00 | 0.00 | 0.00 | 36 | 1007.7 |
| 20260503204513 | 13 | 319 | 0.0 | 6.4 | 0.00 | 0.00 | 0.00 | 35 | 1007.6 |
| 20260503203029 | 13 | 304 | 0.0 | 1.6 | 0.00 | 0.00 | 0.00 | 36 | 1007.7 |
| 20260503201533 | 13 | 94 | 0.0 | 1.6 | 0.00 | 0.00 | 0.00 | 38 | 1007.9 |
| 20260503200026 | 13 | 205 | 0.0 | 4.8 | 0.00 | 0.00 | 0.00 | 39 | 1008.0 |